{"data":{"norad_id":49002,"epoch":"2026-09-20T03:37:44.570784Z","epoch_age_seconds":52060,"freshness":"FRESH","line1":"1 49002U 21060AM  26263.15121031 -.00000044  00000+0 -14866-3 0  9994","line2":"2 49002  87.9136 209.9199 0001537  77.5236 282.6067 13.16594720252093","mean_motion":13.1659472,"eccentricity":0.0001537,"inclination_deg":87.9136,"raan_deg":209.9199,"arg_perigee_deg":77.5236,"mean_anomaly_deg":282.6067,"bstar":-0.00014866,"rev_number":25209,"period_min":109.37306508414,"perigee_km":1196.5904763934,"apogee_km":1198.9193055607,"semimajor_km":7575.8918909771,"source":"CELESTRAK","updated_at":"2026-09-20T09:00:44.630445Z"}}